Printer-friendly version

IAU Minor Planet Center

Minor Planet Center

MPEC 2003-S76 : 2003 SS214

The following Minor Planet Electronic Circular may be linked-to from your own Web pages, but must not otherwise be redistributed electronically.


Read MPEC 2003-S75 Read MPEC 2003-S77


M.P.E.C. 2003-S76                                Issued 2003 Sept. 28, 20:44 UT

     The Minor Planet Electronic Circulars contain information on unusual
         minor planets and routine data on comets.  They are published
   on behalf of Commission 20 of the International Astronomical Union by the
          Minor Planet Center, Smithsonian Astrophysical Observatory,
                          Cambridge, MA 02138, U.S.A.

         Supported in part by the Steven and Michele Kirsch Foundation
             Prepared using the Tamkin Foundation Computer Network

                              MPC@CFA.HARVARD.EDU
          URL http://cfa-www.harvard.edu/iau/mpc.html  ISSN 1523-6714

                                  2003 SS214

Observations:
     K03SL4S* C2003 09 26.86694 02 05 47.55 +29 49 45.9          17.9 R      106
     K03SL4S  C2003 09 26.87291 02 05 49.30 +29 49 47.2          18.2 R      106
     K03SL4S  C2003 09 26.87885 02 05 51.06 +29 49 48.3          18.4 R      106
     K03SL4S  C2003 09 27.83914 02 10 44.97 +29 51 38.4          18.3 R      106
     K03SL4S  C2003 09 27.84269 02 10 45.98 +29 51 38.3          18.2 R      106
     K03SL4S  C2003 09 27.87098 02 10 54.59 +29 51 43.0          18.6 R      106
     K03SL4S  C2003 09 27.87191 02 10 54.87 +29 51 43.9          18.0 R      106
     K03SL4S  C2003 09 27.87468 02 10 55.67 +29 51 43.9          17.8 R      106
     K03SL4S  C2003 09 27.88063 02 10 57.49 +29 51 44.4          18.3 R      106
     K03SL4S  C2003 09 27.88155 02 10 57.84 +29 51 44.8          17.8 R      106
     K03SL4S  C2003 09 27.88248 02 10 58.10 +29 51 44.6          18.1 R      106
     K03SL4S  C2003 09 27.88339 02 10 58.42 +29 51 45.1          18.1 R      106
     K03SL4S  C2003 09 27.88432 02 10 58.66 +29 51 45.3          18.3 R      106
     K03SL4S  C2003 09 27.89025 02 11 00.48 +29 51 45.3          18.0 R      106
     K03SL4S  C2003 09 27.89118 02 11 00.71 +29 51 45.9          18.2 R      106
     K03SL4S  C2003 09 27.89211 02 11 01.00 +29 51 46.0          17.7 R      106
     K03SL4S  C2003 09 27.89303 02 11 01.28 +29 51 46.3          17.8 R      106
     K03SL4S  C2003 09 27.89396 02 11 01.55 +29 51 46.3          18.3 R      106
     K03SL4S  C2003 09 27.95887 02 11 21.00 +29 51 52.8                      246
     K03SL4S  C2003 09 27.95970 02 11 21.25 +29 51 52.8                      246
     K03SL4S  C2003 09 27.96049 02 11 21.48 +29 51 53.0                      246
     K03SL4S  C2003 09 27.96132 02 11 21.74 +29 51 53.1                      246
     K03SL4S  C2003 09 27.96199 02 11 21.91 +29 51 53.1                      246
     K03SL4S  C2003 09 28.05854 02 11 50.75 +29 52 00.4                      118
     K03SL4S  C2003 09 28.06194 02 11 51.79 +29 52 00.7          18.5 R      118
     K03SL4S  C2003 09 28.24394 02 12 50.95 +29 52 03.1          18.5 R      642
     K03SL4S  C2003 09 28.24762 02 12 52.08 +29 52 03.4          18.6 R      642
     K03SL4S  C2003 09 28.25077 02 12 52.93 +29 52 01.8          18.7 R      642
     K03SL4S  C2003 09 28.27020 02 12 59.04 +29 52 18.1          18.9 R      854
     K03SL4S  C2003 09 28.27558 02 13 00.64 +29 52 18.4          18.8 R      854
     K03SL4S  C2003 09 28.27737 02 13 01.17 +29 52 18.9          18.8 R      854
     K03SL4S  C2003 09 28.28732 02 13 04.25 +29 52 19.1          18.4 R      G90
     K03SL4S  C2003 09 28.28912 02 13 04.72 +29 52 19.2          18.3 R      G90
     K03SL4S  C2003 09 28.29086 02 13 05.22 +29 52 19.4          18.4 R      G90
     K03SL4S 5C2003 09 28.32095 02 13 14.52 +29 52 20.1          18.5 R      673
     K03SL4S 5C2003 09 28.32350 02 13 15.29 +29 52 20.3                      673
     K03SL4S 5C2003 09 28.32604 02 13 16.05 +29 52 20.4                      673
     K03SL4S  C2003 09 28.32894 02 13 16.04 +29 52 18.9          19.5 R      H36
     K03SL4S  C2003 09 28.33192 02 13 16.80 +29 52 19.2          19.3 R      H36
     K03SL4S  C2003 09 28.33475 02 13 17.73 +29 52 19.2          19.2 R      H36

Observer details:
106 Crni Vrh.  Observer S. Maticic.  Measurer J. Skvarc.  0.60-m f/3.3
    Deltagraph + CCD..
118 Modra.  Observer S. Gajdos.  0.6-m f/5.5 reflector + CCD.
246 Klet Observatory-KLENOT.  Observers J. Ticha, M. Tichy.  1.06-m KLENOT
    Telescope + CCD.
642 Oak Bay, Victoria.  Observer C. E. Spratt.  0.235-m f/5.2
    Schmidt-Cassegrain with focal reducer + CCD.
673 Table Mountain Observatory, Wrightwood.  Observer J. Young.  0.6-m
    reflector + CCD.
854 Sabino Canyon Observatory, Tucson.  Observer J. E. McGaha.  0.30-m f/10.0
    Schmidt-Cassegrain + CCD.
G90 Three Buttes Observatory, Tucson.  Observer G. R. Jones.  0.32-m
    Ritchey-Chretien + CCD.
H36 Sandlot Observatory, Scranton.  Observer G. Hug.  .3 meter
    Schmidt-Cassegrain + CCD.

Orbital elements:
2003 SS214
Epoch 2003 Sept. 18.0 TT = JDT 2452900.5                MPC
M 346.65855              (2000.0)            P               Q
n   0.28577101     Peri.  195.09877     +0.68267945     -0.72703660
a   2.2827443      Node   211.95182     +0.68394701     +0.67105497
e   0.5164743      Incl.    7.95687     +0.25722609     +0.14526873
P   3.45           H   20.3           G   0.15
From 40 observations 2003 Sept. 26-28.

Ephemeris:
2003 SS214               a,e,i = 2.28, 0.52, 8                   q = 1.1038
Date    TT    R. A. (2000) Decl.     Delta      r     Elong.  Phase     V
2003 09 28    02 11.54   +29 52.2    0.223    1.183   140.8    32.4    18.8
2003 10 08    03 10.56   +28 34.1    0.185    1.147   140.1    34.0    18.3
2003 10 18    04 18.76   +23 31.5    0.162    1.121   137.2    37.2    18.1
2003 10 28    05 22.31   +15 14.4    0.157    1.107   132.8    41.2    18.1
2003 11 07    06 10.46   +06 28.9    0.167    1.104   129.2    44.0    18.3
2003 11 17    06 41.82   -00 31.2    0.187    1.115   128.5    44.0    18.6
2003 11 27    06 59.26   -05 12.5    0.213    1.137   130.7    41.1    18.8
2003 12 07    07 06.53   -07 45.1    0.242    1.170   135.3    36.3    19.0
2003 12 17    07 07.02   -08 28.9    0.277    1.212   141.2    30.6    19.2
2003 12 27    07 03.72   -07 43.2    0.318    1.262   147.2    25.0    19.5
2004 01 06    06 59.59   -05 51.1    0.368    1.318   151.5    20.8    19.8
2004 01 16    06 56.80   -03 20.5    0.430    1.379   152.5    19.2    20.1
2004 01 26    06 56.58   -00 36.1    0.505    1.443   149.7    20.1    20.6
2004 02 05    06 59.50   +02 03.0    0.594    1.509   144.5    22.3    21.1
2004 02 15    07 05.39   +04 24.9    0.697    1.577   138.2    24.7    21.6

Kyle E. Smalley              (C) Copyright 2003 MPC           M.P.E.C. 2003-S76

Read MPEC 2003-S75 Read MPEC 2003-S77


Our Web policy. Index to the CBAT/MPC/ICQ pages.


Valid HTML 4.01!